Flag for U.S.A. Weather past 2 weeks in Santa Barbara, California, U.S.A.

Now
62 °F

Sunny.


Feels Like: 62 °F
Forecast: 52 / 69 °F
Wind: 8 mph from East

Location: Santa Barbara Municipal Airport

Current Time: May 24, 2015 at 8:29:11 AM

Latest Report: May 24, 2015 at 7:53 AM


Visibility: 10 mi

Pressure: 30.01 "Hg

Humidity: 60%

Dew point: 48 °F

Location of Santa BarbaraLocation

Historic Weather in Santa Barbara — Graph

°F

Santa Barbara temperature yesterday

Maximum temperature yesterday: 70 °F (at 3:53 PM)
Minimum temperature yesterday: 51 °F (at 2:53 AM)
Average temperature yesterday: 61 °F

Past Weeks' High & Low Weather Summary

 TemperatureHumidityPressure
High74 °F (May 18, 5:53 PM)93% (May 15, 1:53 AM)30.09 "Hg (May 15, 1:53 AM)
Low46 °F (May 12, 5:53 AM)35% (May 18, 5:53 PM)29.79 "Hg (May 11, 7:53 PM)
Average60 °F68%29.95 "Hg
* Reported May 9 6:53 AM — May 24 6:53 AM, Santa Barbara, Weather by CustomWeather, © 2015

Note: Actual official high and low records may vary slightly from our data, if they occured in-between our weather recording intervals... More about our weather records

Advertising

Santa Barbara weather history for previous 24 hours

 ConditionsComfort  
Time TempWeatherWind HumidityBarometerVisibility
6:53 AM
Sun, May 24
55 °FSunny.5 mph80%30.00 "Hg10 mi
5:53 AM51 °FClear.No wind83%29.98 "Hg10 mi
4:53 AM50 °FClear.No wind86%29.98 "Hg10 mi
3:53 AM51 °FClear.No wind86%29.98 "Hg10 mi
2:53 AM53 °FClear.No wind80%29.99 "Hg10 mi
1:53 AM54 °FClear.3 mph77%29.99 "Hg10 mi
12:53 AM54 °FClear.No wind77%29.99 "Hg10 mi
11:53 PM
Sat, May 23
56 °FClear.No wind75%30.01 "Hg10 mi
10:53 PM59 °FClear.5 mph62%30.01 "Hg10 mi
9:53 PM59 °FClear.3 mph64%30.01 "Hg10 mi
8:53 PM61 °FSunny.5 mph60%29.99 "Hg10 mi
7:53 PM64 °FSunny.5 mph63%29.98 "Hg10 mi
6:53 PM64 °FSunny.7 mph65%29.98 "Hg10 mi
5:53 PM67 °FSunny.7 mph59%29.98 "Hg10 mi
4:53 PM68 °FSunny.7 mph57%29.99 "Hg10 mi
3:53 PM70 °FSunny.6 mph51%30.01 "Hg10 mi
2:53 PM69 °FSunny.7 mph53%30.02 "Hg10 mi
1:53 PM68 °FSunny.6 mph53%30.05 "Hg10 mi
12:53 PM68 °FPassing clouds.9 mph55%30.06 "Hg10 mi
11:53 AM67 °FSunny.12 mph55%30.08 "Hg10 mi
10:53 AM66 °FSunny.10 mph56%30.09 "Hg10 mi
9:53 AM65 °FSunny.9 mph61%30.09 "Hg10 mi
8:53 AM63 °FSunny.5 mph63%30.09 "Hg10 mi
Weather by CustomWeather, © 2015

See weather overviewHow to use our weather pages